Terug naar catalogus

GEOTAIL

ActiefWetenschapHEO
NORAD 22049·PAYLOAD·🇯🇵 Japan

Gelanceerd Jul 24, 1992 vanaf Cape Canaveral Space Force Station

Loading…

Volgende Passages (komende 24 uur)

TLE

VerouderendSource: Space-Track

Epoch: Sep 3, 2026, 02:11 UTC

1 22049U 92044A   26246.09134355 -.00000793  00000-0  00000-0 0  9996
2 22049  45.5136 340.2822 5647478 285.2595   2.0262  0.19146871 15916

Volg GEOTAIL in realtime met AllMySat

Download on the App Store